Regional Weather Roundup
Issued by NWS Sterling, VA

Home | Current Version | Previous Version | Text Only | Print | Product List | Glossary On
Versions: 1 2 3 4 5 6 7 8 9 10 11 12 13 14 15 16 17 18 19 20 21 22 23 24 25 26 27 28 29 30 31 32 33 34 35 36 37 38 39 40 41 42 43 44 45 46 47 48 49
000
ASUS41 KLWX 301210
RWRLWX

REGIONAL WEATHER ROUNDUP
NATIONAL WEATHER SERVICE BALTIMORE MD/WASHINGTON DC
800 AM EDT THU JUL 30 2015

Note: "FAIR" indicates few or no clouds below 12,000 feet
with no significant weather and/or obstructions to visibility.
 TC=TEMPERATURE CELSIUS

 * =Non NWS site. Station does not report precipitation (e.g. rain,
    snow, etc.), thunder, or fog.

DCZ001-MDZ009-015-VAZ040>042-051-053>054-301300-
WASHINGTON METRO

CITY           SKY/WX    TMP DP  RH WIND       PRES   REMARKS
WASHINGTON NAT PTSUNNY   81  73  76 S8        29.92F
DULLES         PTSUNNY   77  73  88 SW8       29.92F
ANDREWS AFB    PTSUNNY   78  72  81 S12       29.92F
FT BELVOIR     PTSUNNY   78  73  86 VRB5      29.92F
QUANTICO       PTSUNNY   78  71  79 SW9       29.93S
COLLEGE PARK*  PTSUNNY   79  72  78 SW5       29.92S
LEESBURG*      PTSUNNY   77  77 100 S10       29.93F
MANASSAS*      SUNNY     75  75 100 CALM      29.93S
GAITHERSBURG*  PTSUNNY   79  72  78 S5        29.97S

$$

MDZ006>007-011-014-301300-
BALTIMORE METRO

CITY           SKY/WX    TMP DP  RH WIND       PRES   REMARKS
BWI AIRPORT    PTSUNNY   78  73  84 S7        29.91F
MD SCIENCE CTR   N/A     80  73  79 MISG      29.91F
MARTIN STATE   PTSUNNY   79  75  89 S5        29.93
ANNAPOLIS      MOSUNNY   78  70  76 S6        29.92S
FORT MEADE*    PTSUNNY   73  73 100 SW5       29.94F

$$

MDZ012-015-019>023-301300-
MARYLAND EASTERN SHORE

CITY           SKY/WX    TMP DP  RH WIND       PRES   REMARKS
OCEAN CITY     SUNNY     80  73  79 SW8       29.96S
SALISBURY      SUNNY     77  74  90 S8        29.95S
BAY BRIDGE AP*   N/A     79  72  78 S9        29.92F
CAMBRIDGE*     MOSUNNY   79  72  78 SW6       29.94S
EASTON*        MOSUNNY   81  77  89 SW9       29.97S

$$

MDZ017>025-301300-
SOUTHERN MARYLAND

CITY           SKY/WX    TMP DP  RH WIND       PRES   REMARKS
PATUXENT RIVER PTSUNNY   77  71  82 SW14      29.94S
ST INIGOES     MOSUNNY   78  73  84 S6        29.94S
LEONARDTOWN*   SUNNY     77  68  73 S8        29.96S

$$

MDZ003>005-301300-
NORTH CENTRAL MARYLAND

CITY           SKY/WX    TMP DP  RH WIND       PRES   REMARKS
FREDERICK*     PTSUNNY   77  75  94 SW5       29.94F
HAGERSTOWN APT MOSUNNY   79  73  82 S6        29.92S
WESTMINSTER*   MOSUNNY   79  75  89 S8        29.93F

$$

MDZ501>502-301300-
WESTERN MARYLAND

CITY           SKY/WX    TMP DP  RH WIND       PRES   REMARKS
OAKLAND*       FOG       68 N/A N/A W6        30.05F VSB 1/2
CUMBERLAND*    CLOUDY    73  73 100 CALM      29.97S

$$

VAZ025>031-301300-
SHENANDOAH VALLEY

CITY           SKY/WX    TMP DP  RH WIND       PRES   REMARKS
WINCHESTER*    PTSUNNY   79  73  83 SW3       29.93S
FRONT ROYAL*   FAIR      77  72  83 S3        29.92F
LURAY*         PTSUNNY   79  77  94 CALM      29.95F
NEW MARKET*    FAIR      76  73  90 SW8       29.95R
STAUNTON*      MOSUNNY   77  73  88 CALM      30.00R
WAYNESBORO*    FAIR      73  71  95 CALM      29.99S

$$

WVZ021-048>050-054>055-301300-
EASTERN WEST VIRGINIA PANHANDLE

CITY           SKY/WX    TMP DP  RH WIND       PRES   REMARKS
MARTINSBURG    MOSUNNY   77  73  87 S5        29.92S
PETERSBURG*    PTSUNNY  N/A N/A N/A CALM      29.97S FOG

$$

VAZ036>039-050-301300-
CENTRAL FOOTHILLS

CITY           SKY/WX    TMP DP  RH WIND       PRES   REMARKS
CHARLOTTESVILL MOSUNNY   76  73  91 SW6       29.95S
CULPEPER*      MOSUNNY   75  73  91 S3        29.94S
ORANGE*        MOSUNNY   77  72  83 S8        29.95F
GORDONSVILLE*  FAIR      73  72  94 SW5       29.94S
WARRENTON*     FAIR      77  75  93 SW6       29.92F

$$

VAZ055>057-301300-
NORTH AND CENTRAL PIEDMONT

CITY           SKY/WX    TMP DP  RH WIND       PRES   REMARKS
FREDERICKSBRG* PTSUNNY   78  76  95 S5        29.92F
STAFFORD*      PTSUNNY   76  72  87 CALM      29.97S

$$

NCZ024-NYZ072-PAZ021-071-VAZ022-071-301300-
OTHER REGIONAL OBSERVATIONS

CITY           SKY/WX    TMP DP  RH WIND       PRES   REMARKS
NEW YORK CITY  PTSUNNY   80  71  74 MISG      29.94S
PHILADELPHIA   PTSUNNY   80  73  79 S12       29.92F
PITTSBURGH     MOSUNNY   75  60  59 NW9       29.97S
ROANOKE        PTSUNNY   75  71  87 W6        30.01S
RICHMOND       PTSUNNY   77  71  82 S5        29.96S
RALEIGH        PTSUNNY   77  71  82 W3        29.97S

$$

ANZ530>537-301300-
MARINE OBSERVATIONS

STATION/POSITION TIME  TEMP    WIND        PRES
                       AIR SEA DIR/SP/G
                 (UTC) (F)     (DEG/KT/KT) (MB)
THOMAS PT LIGHT  NOT AVBL
BALT KEY BRIDGE  1100   77                   N/A
COVE POINT       1100   77                   N/A
LEWISETTA        1100   76                   N/A

$$




USA.gov is the U.S. government's official web portal to all federal, state and local government web resources and services.